Location: Ahausen
(50.4985°N, 8.2722°E)
Time: 07:45:39
(UTC+00:00)

USA 234 - Pass Details

Date: 18 September 2020
Orbit: 1102 x 1106 km, 123.0° (Epoch: 16 October)

Event Time Altitude Azimuth Distance (km) Brightness Sun altitude
Exits shadow 20:19:21 13° 60° (ENE) 2,764 5.1 -25.3°
Maximum altitude 20:25:23 76° 146° (SE) 1,137 3.1 -26.1°
Drops below altitude 10° 20:31:56 10° 232° (SW) 2,959 5.6 -26.9°
Sets 20:34:25 0° 234° (SW) 3,916 6.3 -27.1°
